Flag for Germany Weather past 2 weeks in Lutherstadt Eisleben, Saxony-Anhalt, Germany

Now
61 °F

Overcast.


Feels Like: 61 °F
Forecast: 51 / 68 °F
Wind: 1 mph from Southeast

Location: Leipzig-Schkeuditz

Current Time: Oct 1, 2014 at 11:15:20 PM

Latest Report: Oct 1, 2014 at 10:00 PM


Visibility: 6 mi

Pressure: 30.34 "Hg

Humidity: 81%

Dew point: 55 °F

Location of Lutherstadt EislebenLocation

Historic Weather in Lutherstadt Eisleben — Graph

°F

Lutherstadt Eisleben temperature yesterday

Maximum temperature yesterday: 69 °F (at 5:00 PM)
Minimum temperature yesterday: 60 °F (at 7:00 AM)
Average temperature yesterday: 63 °F

Past Weeks' High & Low Weather Summary

 TemperatureHumidityPressure
High77 °F (Sep 29, 3:00 PM)98% (Sep 20, 2:00 AM)30.39 "Hg (Sep 20, 2:00 AM)
Low44 °F (Sep 24, 7:00 AM)40% (Sep 17, 5:00 PM)29.85 "Hg (Sep 24, 8:00 PM)
Average59 °F81%30.08 "Hg
* Reported Sep 16 10:00 PM — Oct 1 10:00 PM, Lutherstadt Eisleben, Weather by CustomWeather, © 2014

Note: Actual official high and low records may vary slightly from our data, if they occured in-between our weather recording intervals... More about our weather records

Advertising

Lutherstadt Eisleben weather history for previous 24 hours

 ConditionsComfort  
Time TempWeatherWind HumidityBarometerVisibility
10:00 PM
Oct 1
61 °FOvercast.1 mph81%30.34 "Hg6 mi
9:00 PM62 °FOvercast.1 mph78%30.34 "Hg7 mi
8:00 PM62 °FOvercast.1 mph76%30.33 "Hg9 mi
7:00 PM64 °FPassing clouds.1 mph74%30.32 "Hg9 mi
6:00 PM67 °FPassing clouds.1 mph66%30.30 "Hg11 mi
4:00 PM69 °FPassing clouds.2 mph64%30.30 "Hg7 mi
3:00 PM67 °FScattered clouds.1 mph66%30.31 "Hg9 mi
2:00 PM67 °FScattered clouds.2 mph68%30.32 "Hg6 mi
1:00 PM66 °FFog.2 mph73%30.33 "Hg4 mi
12:00 PM64 °FFog.2 mph84%30.33 "Hg3 mi
11:00 AM62 °FFog.1 mph88%30.33 "Hg2 mi
10:00 AM59 °FFog.1 mph94%30.32 "Hg2 mi
9:00 AM58 °FFog.1 mph98%30.32 "Hg1 mi
8:00 AM56 °FFog.1 mph98%30.31 "Hg1 mi
7:00 AM56 °FFog.1 mph98%30.30 "Hg1 mi
6:00 AM55 °FFog.1 mph98%30.31 "Hg0 mi
5:00 AM55 °FFog.1 mph96%30.31 "Hg0 mi
4:00 AM57 °FFog.1 mph95%30.30 "Hg0 mi
3:00 AM59 °FFog.1 mph93%30.30 "Hg2 mi
2:00 AM60 °FOvercast.1 mph94%30.30 "Hg4 mi
1:00 AM61 °FSprinkles. Overcast.1 mph94%30.29 "Hg2 mi
12:00 AM62 °FSprinkles. Overcast.2 mph95%30.29 "Hg2 mi
11:00 PM
Sep 30
62 °FOvercast.1 mph93%30.28 "Hg4 mi
Weather by CustomWeather, © 2014

See weather overviewHow to use our weather pages